Notices

What's New in latest Release from April 7th, 2021:

- Updated Glossary, including Speed of Maximum Gust, and Total Hourly Precipitation

- Updated national and regional climate services offices contacts and prices information

- Addition of station inventory lists for 1981-2010, 1971-2000, and 1961-1990 Normals.

If you haven't already, please take our survey and provide feedback about our website: https://eccc.sondage-survey.ca/f/LanguageSelection.aspx?s=442ca660-fcf1-47c0-95a9-59707d6fd709

Hourly Data Report for March 20, 2021

OTTAWA INTL A
ONTARIO
Current Station Operator: NAVCAN

45°19'00.000" N
75°40'00.000" W
114.90 m
6106001
71628
YOW

Download Data

Hourly Data (March 2021)
Hourly Data Report for March 20, 2021
TIME
LST
Temp Definition
°C
Dew Point Definition
°C
Rel Hum Definition
%
Precip. Amount Definition
mm

Wind Dir Definition
10's deg

Wind Spd Definition
km/h
Visibility Definition
km
Stn Press Definition
kPa
Hmdx Definition


Wind Chill Definition


Weather Definition


00:00 -2.5 -8.3 64   22 14 24.1 101.56   -7 LegendNANA
01:00 -2.9 -8.1 67   22 14 24.1 101.58   -8 Clear
02:00 -3.1 -8.0 69   22 14 24.1 101.57   -8 LegendNANA
03:00 -3.5 -8.1 70   22 16 24.1 101.56   -9 LegendNANA
04:00 -4.0 -8.1 73   22 14 24.1 101.57   -9 Clear
05:00 -4.3 -8.2 74   21 14 24.1 101.61   -9 LegendNANA
06:00 -4.7 -8.2 76   21 12 24.1 101.63   -9 LegendNANA
07:00 -2.9 -7.7 70   21 14 24.1 101.69   -8 Clear
08:00 -0.4 -7.3 60   22 13 24.1 101.72   -5 LegendNANA
09:00 2.3 -6.5 52   25 14 24.1 101.76     LegendNANA
10:00 5.1 -6.8 42   27 24 24.1 101.76     Clear
11:00 6.6 -5.6 41   28 15 24.1 101.74     LegendNANA
12:00 8.7 -6.0 35   26 23 24.1 101.72     LegendNANA
13:00 10.7 -5.3 32   26 17 24.1 101.68     Mainly Clear
14:00 12.3 -5.0 29   25 19 24.1 101.64     LegendNANA
15:00 12.5 -4.9 29   20 17 24.1 101.61     LegendNANA
16:00 13.0 -5.6 27   22 14 24.1 101.59     Clear
17:00 12.9 -5.6 27   21 11 24.1 101.58     LegendNANA
18:00 10.6 -5.7 31   17 10 24.1 101.60     LegendNANA
19:00 6.8 -2.5 52   19 9 24.1 101.64     Clear
20:00 5.4 -2.2 58   19 14 24.1 101.68     LegendNANA
21:00 3.5 -2.3 66   19 12 24.1 101.72     LegendNANA
22:00 1.8 -2.7 72   21 10 24.1 101.72     Clear
23:00 1.8 -3.1 70   21 9 24.1 101.73     LegendNANA

Notes on Data Quality.

Legend

  • E = Estimated
  • M = Missing
  • NA = Not Available*
  • [empty] = Indicates an unobserved value
Date modified: